User: anonymous   Login
Location: Tucson
(32.2217°N, 110.9265°W)
Time: 00:02:06
(UTC-07:00)
Language:

N. Korean satellite - Orbit

View from above orbital plane
View from above orbital plane
View from above satellite
View from above satellite

Ground track
Ground track

The orbit data is extracted from the following two-line orbital elements,

1 39026U 12072A   19138.74905036  .00001274  00000-0  48797-4 0  9991
2 39026  97.2111 142.9026 0037213 208.9201 150.9978 15.27738643356879
Epoch (UTC): 18 May 2019 17:58:37
Eccentricity: 0.0037213
inclination: 97.2111°
perigee height: 457 km
apogee height: 508 km
right ascension of ascending node: 142.9026°
argument of perigee: 208.9201°
revolutions per day: 15.27738643
mean anomaly at epoch: 150.9978°
orbit number at epoch: 35687

The dashed part of the orbit path shows where the satellite is in the earth's shadow,  

DLR